COSMOS 1375 DEB, 16207

Orbit data source: Space-Track

COSMOS 1375 DEB, 16207 is space debris in LEO originally from a launch on Sun, 06 Jun 1982 UTC launched from the Plesetsk Missile And Space Complex (PKMTR). Debris objects in space refer to the collection of defunct objects orbiting the Earth. Examples of debris include non-operational satellites, rocket bodies, and fragments generated from explosions, collisions, or faulty payload assembly.

Loading next visibility...
Identifier
16207, 1982-055J
Orbit
LEO
Country
Flag of CISCIS
Related business
Manufacturer
Unknown
Mission
Spacecraft
Bus & Motor
Unknown
Mass
Unknown
Launch date (UTC)
1982-06-06 (44 years ago)
Launch vehicle
Unknown
Launch site
Plesetsk Missile And Space Complex (PKMTR)
Object type
Payload
Rocket body
Debris
Shape & HBR
Unknown shape, 0.3 m
Radar Cross Section
Medium (>0.1 m² and <1 m²)

Expand to show TLE details & history
Last TLE update: 2 days ago

TLE from 2 days ago
0 COSMOS 1375 DEB
1 16207U 82055J   26171.36772788 -.00000045  00000-0  43498-4 0  9993
2 16207  65.8364  26.3726 0083324 197.2018 335.5838 13.57717852 15393
Epoch: 2026-06-20T08:49Z
TLE epoch observation values (Epoch: 2026-06-20T08:49:31.688Z)
Latitude
6.88698°
Longitude
162.31701°
Altitude
989.109 km
Speed
7.386 km/s
True Right ascension
13h 33m 07s
True Declination
6° 50' 51"
Sunlit
Object was in daylight at epoch
Visualization orbit readout
Latitude
Unknown
Longitude
Unknown
Altitude
Unknown
Speed
Unknown
Apparent Right ascension
Unknown
Apparent Declination
Unknown
Sunlit
N/A
Visualization observer readout
Local Sidereal Time
02:00:09
Azimuth
Unknown
Elevation
Unknown
Doppler factor
Unknown
Orbital elements
Apogee altitude
1,104.359 km
Perigee altitude
980.695 km
Semi-major axis
7,420.664 km
Eccentricity
0.00833
Inclination
65.8364°
RAAN
26.3726°
Arg. of periapsis
197.2018°
True anomaly
335.18534°
Mean anomaly
335.5838°
Eccentric anomaly
335.38495°
Mean motion
3.39531 °/min
Orbital period
106.03 mins
BSTAR
0.000043498
Loading maneuver chart data...
Computing Atmospheric mass density...
Loading historical data...
Loading historical data...
Loading historical data...
Loading historical data...
Loading historical data...
Loading historical data...
Loading historical data...

Documentation

Showing up to 5 results
|